Weather History for Mt. Pocono, PA

Change the Weather History Date:

Sunday, October 6, 2013

  Actual Average Record
Temperature  
Mean Temperature 64 °F 51 °F  
Max Temperature 65 °F 60 °F 82 °F (1946)
Min Temperature 62 °F 42 °F 21 °F (1965)
Degree Days  
Heating Degree Days 1 14  
Month to date heating degree days 12 79  
Since 1 July heating degree days 325 347  
Cooling Degree Days 0 0  
Month to date cooling degree days 8 0  
Year to date cooling degree days 467 313  
Growing Degree Days 14 (Base 50)    
Moisture  
Dew Point 63 °F    
Average Humidity 97    
Maximum Humidity 100    
Minimum Humidity 93    
Precipitation  
Precipitation 0.01 in 0.16 in 4.50 in (1932)
Month to date precipitation 0.11 0.97  
Year to date precipitation 37.49 37.31  
Sea Level Pressure  
Sea Level Pressure 30.06 in    
Wind  
Wind Speed 8 mph (SE)    
Max Wind Speed 15 mph    
Max Gust Speed 21 mph    
T = Trace of Precipitation, MM = Missing Value Source: NWS Daily Summary

Daily Weather History Graph

Daily Weather History Graph

Search for Another Location

Airport:

Trip Planner

Search our weather history database for the weather conditions in past years. The results will help you decide how hot, cold, wet, or windy it might be!

Date:

Astronomy

Oct. 06, 2013 Rise Set
Actual Time 7:03 AM EDT 6:34 PM EDT
Civil Twilight 6:36 AM EDT 7:02 PM EDT
Nautical Twilight 6:04 AM EDT 7:34 PM EDT
Astronomical Twilight 5:32 AM EDT 8:06 PM EDT
Moon 8:46 AM EDT (10/6) 7:31 PM EDT (10/6)
Length of Visible Light 12h 26m
Length of Day
11h 31m
Waxing Crescent, 3% of the Moon is Illuminated
Oct 6
Waxing Crescent
Oct 11
First Quarter
Oct 18
Full
Oct 26
Last Quarter
Nov 3
New

Hourly Weather History & Observations

Time (EDT) Temp. Dew Point Humidity Pressure Visibility Wind Dir Wind Speed Gust Speed Precip Events Conditions
12:12 AM 66.2 °F 64.4 °F 94% 30.11 in 1.5 mi SSE 5.8 mph - 0.00 in Rain Rain
12:38 AM 66.2 °F 64.4 °F 94% 30.10 in 2.0 mi SSE 6.9 mph - N/A Rain Rain
12:53 AM 64.9 °F 64.0 °F 97% 30.07 in 2.0 mi SSE 5.8 mph - N/A   Overcast
1:00 AM 64.4 °F 64.4 °F 100% 30.10 in 0.8 mi SE 4.6 mph - N/A   Overcast
1:14 AM 64.4 °F 64.4 °F 100% 30.10 in 0.2 mi South 3.5 mph - N/A Fog Fog
1:53 AM 64.9 °F 64.0 °F 97% 30.07 in 0.2 mi South 5.8 mph - N/A Fog Fog
2:53 AM 64.9 °F 63.0 °F 93% 30.04 in 0.2 mi Calm Calm - N/A Fog Fog
3:53 AM 63.0 °F 62.1 °F 97% 30.04 in 0.2 mi SE 5.8 mph - N/A Fog Fog
4:53 AM 63.0 °F 61.0 °F 93% 30.05 in 0.2 mi ESE 4.6 mph - N/A Fog , Rain Light Rain
5:53 AM 62.1 °F 61.0 °F 96% 30.06 in 0.2 mi SE 6.9 mph - N/A Fog , Rain Light Rain
6:53 AM 62.1 °F 61.0 °F 96% 30.05 in 0.2 mi SE 6.9 mph - N/A Fog Fog
7:53 AM 62.1 °F 61.0 °F 96% 30.07 in 0.2 mi SE 4.6 mph - N/A Fog Fog
8:53 AM 62.1 °F 61.0 °F 96% 30.08 in 0.2 mi SE 6.9 mph - N/A Fog Fog
9:53 AM 62.1 °F 61.0 °F 96% 30.09 in 0.2 mi ESE 6.9 mph - N/A Fog Fog
10:53 AM 63.0 °F 62.1 °F 97% 30.09 in 0.2 mi SE 6.9 mph - N/A Fog Fog
11:53 AM 62.1 °F 61.0 °F 96% 30.09 in 0.2 mi ESE 10.4 mph - N/A Fog Fog
12:53 PM 63.0 °F 62.1 °F 97% 30.08 in 0.2 mi SE 8.1 mph - N/A Fog Fog
1:53 PM 63.0 °F 62.1 °F 97% 30.06 in 0.2 mi SE 11.5 mph - N/A Fog Fog
2:53 PM 63.0 °F 62.1 °F 97% 30.06 in 0.2 mi SE 9.2 mph - N/A Fog Fog
3:53 PM 64.0 °F 62.1 °F 93% 30.05 in 0.2 mi SE 11.5 mph - N/A Fog Fog
4:53 PM 63.0 °F 62.1 °F 97% 30.04 in 0.2 mi ESE 11.5 mph 17.3 mph N/A Fog Fog
5:53 PM 64.0 °F 63.0 °F 96% 30.04 in 0.2 mi ESE 9.2 mph - N/A Fog Fog
6:53 PM 64.0 °F 63.0 °F 96% 30.04 in 0.2 mi ESE 10.4 mph - N/A Fog Fog
7:53 PM 64.0 °F 63.0 °F 96% 30.05 in 0.2 mi ESE 10.4 mph - N/A Fog Fog
8:53 PM 63.0 °F 63.0 °F 100% 30.04 in 0.2 mi ESE 10.4 mph - N/A Fog Fog
9:53 PM 63.0 °F 63.0 °F 100% 30.04 in 0.2 mi ESE 10.4 mph 16.1 mph N/A Fog Fog
10:53 PM 64.0 °F 63.0 °F 96% 30.03 in 0.2 mi SE 8.1 mph - N/A Fog Fog
11:53 PM 64.0 °F 63.0 °F 96% 30.02 in 0.2 mi SE 8.1 mph - N/A Fog Fog